Content
SEND FEEDBACK

Daily
Averages
Monthly
Summary
United States of America

OJIBWA, WISCONSIN


Home > North America > United States > Wisconsin
Elevation: 1346 feet     Latitude: 45 52N     Longitude: 091 04W

WEATHER
 
SELECT A DAY
Number of Records: 210,519;   Date Range: 7/1/96 - 10/22/14
 
SHARE

PRINT THIS DATA

[ ← Previous Day ]
WEATHER ALMANAC - JANUARY 3, 2013
[ Next Day → ]
[ °C ]   °F
Weather ElementAverageHighLow
Temperature16 °F19.9 °F (12:53 pm)10.4 °F (9:48 pm)
Dewpoint9.6 °F15.1 °F (6:53 am)3.9 °F (7:53 pm)
Humidity75.9 %85 % (6:53 am)62 % (1:53 pm)
Barometer30.11 in30.20 in (9:53 am)29.95 in (11:49 pm)
Wind Speed4.8 mph8.1 mph (9:48 pm)
Weather ElementAverage
Visibility7.9 mi
Wind DirectionENE (79.3 °)

Weather ElementTotal
Precipitation---
Heating Degree Days49.9 (Base 65)
Averaged from 30 records on January 3, 2013
WEATHER CONDITIONS BREAKOUT
WIND DIRECTION BREAKOUT
WEATHER BY HOUR - JANUARY 3, 2013
[ °C ]   °F
Local TimeTemperatureDewpointHumidityBarometerVisibilityWind DirectionWind SpeedGust SpeedPrecipitationEventsConditions
1:53 AM16.0 °F10.9 °F81 %30.08 in4.0 miVariable3.5 mph0.00 inSnowLight Snow
2:53 AM16.0 °F12.0 °F84 %30.09 in3.0 miCalm0.00 inSnowLight Snow
3:53 AM16.0 °F12.0 °F84 %30.10 in3.0 miCalm0.00 inOvercast
4:53 AM17.1 °F12.9 °F84 %30.11 in4.0 miCalm0.00 inOvercast
5:53 AM18.0 °F14.0 °F84 %30.13 in5.0 miCalmOvercast
6:53 AM19.0 °F15.1 °F85 %30.14 in5.0 miCalmOvercast
7:53 AM19.0 °F15.1 °F85 %30.16 in8.0 miVariable3.5 mphOvercast
8:53 AM19.0 °F14.0 °F81 %30.17 in6.0 miVariable3.5 mph0.00 inSnowLight Snow
9:15 AM17.6 °F12.2 °F79 %30.11 in2.5 miVariable5.8 mph0.00 inSnowLight Snow
9:35 AM17.6 °F12.2 °F79 %30.12 in2.5 miVariable4.6 mph0.00 inSnowLight Snow
9:53 AM18.0 °F10.9 °F74 %30.20 in3.0 miWNW (300°)6.9 mph0.00 inSnowLight Snow
10:53 AM18.0 °F10.0 °F71 %30.20 in10.0 miVariable3.5 mph0.00 inOvercast
11:53 AM18.0 °F10.0 °F71 %30.19 in10.0 miWSW (250°)3.5 mphOvercast
12:53 PM19.9 °F10.0 °F65 %30.17 in10.0 miVariable5.8 mphMostly Cloudy
1:06 PM19.4 °F10.4 °F68 %30.10 in10.0 miVariable6.9 mphScattered Clouds
1:53 PM19.9 °F9.0 °F62 %30.16 in10.0 miSW (230°)6.9 mphClear
2:53 PM19.9 °F9.0 °F62 %30.16 in10.0 miVariable3.5 mphClear
3:53 PM19.0 °F8.1 °F62 %30.16 in10.0 miSW (230°)6.9 mphClear
4:53 PM17.1 °F7.0 °F65 %30.17 in10.0 miVariable5.8 mphClear
5:53 PM16.0 °F7.0 °F68 %30.14 in10.0 miVariable5.8 mphClear
6:53 PM14.0 °F5.0 °F67 %30.13 in10.0 miVariable6.9 mphClear
7:53 PM12.0 °F3.9 °F70 %30.12 in10.0 miSW (230°)6.9 mphClear
8:53 PM12.0 °F3.9 °F70 %30.10 in10.0 miWSW (240°)6.9 mphMostly Cloudy
9:48 PM10.4 °F6.8 °F85 %30.00 in10.0 miSW (220°)8.1 mphScattered Clouds
9:53 PM10.9 °F6.1 °F81 %30.07 in10.0 miSW (220°)8.1 mphScattered Clouds
10:29 PM12.2 °F6.8 °F79 %29.99 in10.0 miSW (230°)6.9 mphMostly Cloudy
10:53 PM12.0 °F7.0 °F80 %30.05 in10.0 miSW (230°)8.1 mphMostly Cloudy
11:00 PM12.2 °F8.6 °F85 %29.97 in10.0 miVariable5.8 mphScattered Clouds
11:49 PM12.2 °F8.6 °F85 %29.95 in10.0 miVariable6.9 mphMostly Cloudy
11:53 PM12.9 °F8.1 °F81 %30.02 in10.0 miVariable3.5 mphMostly Cloudy
Hourly data recorded from KHYR, located miles away from Ojibwa, Wisconsin







STORIES FROM OUR PARTNERS